This is the latest recevied weather packets stored in our database for station/object AE5HO. If no packets are shown the sender has not sent any weather packets the latest 10 day(s).
| Time | Temp. | Humidity | Pressure | Rain* | Wind** | Luminosity | Snow |
|---|---|---|---|---|---|---|---|
| 1787691546 | 36.67° C | 35% | 1013.8 hPa | 0 mm | - | 100 W/m² | - |
| 1787691246 | 36.67° C | 35% | 1014 hPa | 0 mm | - | 87 W/m² | - |
| 1787690941 | 36.67° C | 35% | 1014.1 hPa | 0 mm | - | 86 W/m² | - |
| 1787690636 | 36.67° C | 37% | 1014.1 hPa | 0 mm | - | 100 W/m² | - |
| 1787690336 | 37.22° C | 37% | 1014.1 hPa | 0 mm | - | 102 W/m² | - |
| 1787690033 | 37.22° C | 37% | 1014.4 hPa | 0 mm | - | 98 W/m² | - |
| 1787689729 | 37.78° C | 38% | 1014.3 hPa | 0 mm | - | 108 W/m² | - |
| 1787689424 | 37.78° C | 37% | 1014.3 hPa | 0 mm | - | 105 W/m² | - |
| 1787689123 | 37.78° C | 38% | 1014.2 hPa | 0 mm | - | 95 W/m² | - |
| 1787688820 | 37.78° C | 38% | 1014.4 hPa | 0 mm | - | 92 W/m² | - |
| 1787688510 | 37.78° C | 39% | 1014.2 hPa | 0 mm | - | 99 W/m² | - |
| 1787688210 | 37.22° C | 40% | 1014.2 hPa | 0 mm | - | 117 W/m² | - |
| 1787687905 | 36.67° C | 40% | 1014.5 hPa | 0 mm | - | 109 W/m² | - |
| 1787687605 | 36.67° C | 41% | 1014.4 hPa | 0 mm | - | 110 W/m² | - |
| 1787687301 | 36.67° C | 41% | 1014.6 hPa | 0 mm | - | 114 W/m² | - |
| 1787686996 | 37.22° C | 42% | 1014.7 hPa | 0 mm | - | 120 W/m² | - |
| 1787686693 | 36.67° C | 43% | 1014.5 hPa | 0 mm | - | 116 W/m² | - |
| 1787686392 | 36.67° C | 42% | 1014.7 hPa | 0 mm | - | 119 W/m² | - |
| 1787686089 | 36.11° C | 43% | 1014.7 hPa | 0 mm | - | 125 W/m² | - |
| 1787685783 | 36.67° C | 43% | 1014.7 hPa | 0 mm | - | 133 W/m² | - |
| 1787685479 | 36.67° C | 43% | 1014.8 hPa | 0 mm | - | 141 W/m² | - |
| 1787685173 | 36.11° C | 44% | 1015 hPa | 0 mm | - | 148 W/m² | - |
| 1787684869 | 35.56° C | 44% | 1014.9 hPa | 0 mm | - | 159 W/m² | - |
| 1787684568 | 35.56° C | 45% | 1014.9 hPa | 0 mm | - | 152 W/m² | - |
| 1787684263 | 35.56° C | 44% | 1014.9 hPa | 0 mm | - | 149 W/m² | - |
* Rain latest hour (hover to see other rain measurements)
** Current wind speed in m/s (hover to see current wind gust speed)